Location: *
(44.1392°N, 4.8079°E)
Time: 06:20:13
(UTC+00:00)

Helios 1A - Pass Details

Date: 21 June 2021
Orbit: 584 x 601 km, 98.2° (Epoch: 23 July)

Event Time Altitude Azimuth Distance (km) Brightness Sun altitude
Exits shadow 01:08:53 49° 218° (SW) 775 3.1 -19.6°
Maximum altitude 01:09:36 57° 259° (W) 707 3.1 -19.5°
Drops below altitude 10° 01:13:46 10° 338° (NNW) 1,945 6.2 -19.3°
Sets 01:15:59 0° 343° (NNW) 2,855 7.3 -19.1°
